Weather in Bạc Liêu

Vietnam     9°17′06″N   105°43′23″E
temp.,
°C
wind,
m/s
gust,
m/s
humid.,
%
clouds,
%
prec.,
mm/h
press.,
hPa
HPBL,
m
20 april, tue
tue2001:00+28sw4578100 0.1 1010493
04:00+27sw357898 0.0 1009434
07:00+28sw4575100 0.0 1010688
10:00+30sw556411 0.1 10111214
13:00+31s6461100 0.1 10081161
16:00+30s6667100 1.1 1007568
19:00+30s6772100 1.6 1008603
22:00+29wsw4673100 0.1 1010548
21 april, wed
wed2101:00+28sw4576100 0.2 1009496
04:00+28sw357896 0.0 1008411
07:00+29sw567587 0.0 1010739
10:00+31ssw5564100 0.1 10111181
13:00+31s656697 0.9 1009634
16:00+30ssw5467100 4.9 1007572
19:00+29ssw567081 5.6 1009427
22:00+29sw4676100 0.5 1010466
22 april, thu
thu2201:00+28sw4678100 0.9 1009469
04:00+28sw4580100 0.0 1008370
07:00+28sw347761 0.1 1010465
10:00+31sw4562100 0.6 10101189
13:00+31ssw556097 1.1 1007950
16:00+30s5667100 1.3 1006387
19:00+30sw5769100 4.1 1008499
22:00+28wsw587792 0.1 1010554
23 april, fri
fri2301:00+28sw3679100 1.6 1008264
04:00+27wsw3579100 2.1 1007234
07:00+29sw467195 2.5 1009478
10:00+31sw555921 0.0 10091068
13:00+33wsw555699 0.8 10071437
16:00+29w896891 0.9 1006592
19:00+27w5777100 1.4 1008533
22:00+27w5877100 0.1 1009544
24 april, sat
sat2401:00+27wsw468198 0.1 1008448
04:00+27wsw4781100 0.1 1007380
07:00+28wsw587361 0.2 1009564
10:00+31wsw565895 0.0 10101234
13:00+31ssw8760100 0.3 1007949
16:00+30wsw7867100 3.6 1007842
19:00+28w6973100 3.6 1008659
22:00+28w4776100 0.0 1011538